EJU97HA LEPA-LPPT

Flight info

Callsign EJU97HA
Flight time 1h 45m
Altitude 33000
Route EPAMA4A EPAMA N733 VLC/N0320F130 N733 CJN N975 CCS DCT UPULO UPULO1A
Aircraft A320/M-SDE3FGHIRWY/LB1

Departure

Time 2026-05-04 09:39
Airport Palma de Mallorca Airport (LEPA)

Arrival

Time 2026-05-04 11:24
Airport Lisbon Humberto Delgado Airport (LPPT)
Time Latitude Longitude Altitude Speed Heading
2026-05-04 09:14 39.54902 2.73802 38 ft 0 kts 249°
2026-05-04 09:25 39.54909 2.73953 38 ft 0 kts 328°
2026-05-04 09:27 39.54912 2.73950 38 ft 2 kts 328°
2026-05-04 09:27 39.54936 2.73931 37 ft 6 kts 328°
2026-05-04 09:27 39.54984 2.73895 38 ft 10 kts 329°
2026-05-04 09:28 39.55051 2.73840 38 ft 12 kts 328°
2026-05-04 09:28 39.55122 2.73785 38 ft 12 kts 334°
2026-05-04 09:28 39.55177 2.73814 38 ft 7 kts 36°
2026-05-04 09:28 39.55220 2.73814 38 ft 6 kts 340°
2026-05-04 09:29 39.55259 2.73784 38 ft 7 kts 327°
2026-05-04 09:29 39.55304 2.73748 38 ft 8 kts 328°
2026-05-04 09:29 39.55355 2.73708 38 ft 9 kts 329°
2026-05-04 09:29 39.55412 2.73664 38 ft 10 kts 329°
2026-05-04 09:30 39.55474 2.73616 38 ft 11 kts 329°
2026-05-04 09:30 39.55541 2.73563 38 ft 12 kts 328°
2026-05-04 09:30 39.55604 2.73513 37 ft 6 kts 330°
2026-05-04 09:30 39.55643 2.73507 37 ft 5 kts 15°
2026-05-04 09:31 39.55667 2.73533 38 ft 4 kts 46°
2026-05-04 09:31 39.55683 2.73562 38 ft 4 kts 57°
2026-05-04 09:31 39.55704 2.73605 38 ft 8 kts 58°
2026-05-04 09:31 39.55743 2.73686 38 ft 13 kts 58°
2026-05-04 09:32 39.55800 2.73808 38 ft 18 kts 59°
2026-05-04 09:32 39.55875 2.73966 38 ft 23 kts 58°
2026-05-04 09:34 39.56140 2.74336 37 ft 0 kts 25°
2026-05-04 09:34 39.56151 2.74342 38 ft 4 kts 22°
2026-05-04 09:34 39.56176 2.74347 38 ft 1 kts 354°
2026-05-04 09:37 39.56184 2.74345 38 ft 5 kts 349°
2026-05-04 09:38 39.56229 2.74277 38 ft 16 kts 276°
2026-05-04 09:38 39.56193 2.74194 37 ft 0 kts 238°
2026-05-04 09:38 39.56097 2.73991 36 ft 64 kts 238°
2026-05-04 09:38 39.55755 2.73266 38 ft 124 kts 238°
2026-05-04 09:39 39.55208 2.72112 39 ft 170 kts 238°
2026-05-04 09:39 39.54561 2.70744 546 ft 177 kts 238°
2026-05-04 09:39 39.53937 2.69448 1383 ft 169 kts 236°
2026-05-04 09:39 39.53281 2.68130 1984 ft 178 kts 236°
2026-05-04 09:40 39.52567 2.66739 2256 ft 199 kts 234°
2026-05-04 09:40 39.51775 2.65205 2726 ft 209 kts 236°
2026-05-04 09:40 39.50956 2.63607 3504 ft 210 kts 236°
2026-05-04 09:40 39.50156 2.62043 4308 ft 212 kts 235°
2026-05-04 09:41 39.49324 2.60420 5124 ft 214 kts 236°
2026-05-04 09:42 39.45882 2.47687 9437 ft 278 kts 287°
2026-05-04 09:43 39.46430 2.45426 10094 ft 282 kts 282°
2026-05-04 09:43 39.46893 2.42914 10546 ft 297 kts 279°
2026-05-04 09:43 39.47301 2.40193 10822 ft 317 kts 277°
2026-05-04 09:43 39.47746 2.37357 11445 ft 324 kts 280°
2026-05-04 09:44 39.48295 2.34512 12197 ft 328 kts 282°
2026-05-04 09:44 39.48896 2.31656 12958 ft 330 kts 282°
2026-05-04 09:44 39.49516 2.28785 13719 ft 332 kts 282°
2026-05-04 09:46 39.53755 2.08265 18417 ft 342 kts 281°
2026-05-04 09:46 39.54356 2.05272 18958 ft 344 kts 280°
2026-05-04 09:46 39.54962 2.02265 19493 ft 347 kts 280°
2026-05-04 09:47 39.55573 1.99235 20003 ft 349 kts 280°
2026-05-04 09:47 39.56189 1.96183 20544 ft 351 kts 279°
2026-05-04 09:49 39.60598 1.74181 23849 ft 369 kts 278°
2026-05-04 09:49 39.61241 1.70947 24239 ft 371 kts 278°
2026-05-04 09:49 39.61887 1.67698 24637 ft 373 kts 278°
2026-05-04 09:51 39.65800 1.47918 26918 ft 383 kts 278°
2026-05-04 09:51 39.66461 1.44554 27291 ft 385 kts 277°
2026-05-04 09:51 39.67121 1.41185 27659 ft 386 kts 277°
2026-05-04 09:51 39.67785 1.37800 28023 ft 388 kts 277°
2026-05-04 09:52 39.68451 1.34392 28382 ft 390 kts 277°
2026-05-04 09:52 39.69119 1.30975 28731 ft 392 kts 277°
2026-05-04 09:52 39.69789 1.27544 29085 ft 393 kts 277°
2026-05-04 09:52 39.70462 1.24091 29422 ft 395 kts 277°
2026-05-04 09:53 39.71132 1.20630 29747 ft 397 kts 277°
2026-05-04 09:53 39.71807 1.17143 30065 ft 398 kts 277°
2026-05-04 09:53 39.72483 1.13651 30323 ft 400 kts 277°
2026-05-04 09:53 39.73161 1.10134 30581 ft 402 kts 277°
2026-05-04 09:54 39.73840 1.06614 30830 ft 403 kts 277°
2026-05-04 09:54 39.74521 1.03073 31104 ft 404 kts 277°
2026-05-04 09:54 39.75203 0.99538 31477 ft 402 kts 277°
2026-05-04 09:54 39.75883 0.96016 31841 ft 401 kts 277°
2026-05-04 09:55 39.76559 0.92505 32215 ft 400 kts 277°
2026-05-04 09:55 39.77232 0.89002 32553 ft 399 kts 276°
2026-05-04 09:55 39.77901 0.85507 32893 ft 398 kts 276°
2026-05-04 09:56 39.79218 0.78620 32998 ft 385 kts 276°
2026-05-04 09:56 39.80495 0.71917 32996 ft 381 kts 276°
2026-05-04 09:57 39.81741 0.65241 32995 ft 380 kts 276°
2026-05-04 09:57 39.82987 0.58565 32996 ft 380 kts 276°
2026-05-04 09:58 39.84215 0.52026 32998 ft 380 kts 276°
2026-05-04 09:58 39.85471 0.45355 32998 ft 380 kts 276°
2026-05-04 10:00 39.90409 0.18662 32993 ft 379 kts 276°
2026-05-04 10:04 39.98946 -0.28162 32994 ft 380 kts 276°
2026-05-04 10:04 40.00154 -0.34883 32994 ft 381 kts 276°
2026-05-04 10:05 40.01354 -0.41615 32998 ft 382 kts 276°
2026-05-04 10:05 40.02560 -0.48369 32992 ft 382 kts 276°
2026-05-04 10:06 40.03758 -0.55124 32994 ft 383 kts 276°
2026-05-04 10:06 40.04953 -0.61890 32995 ft 383 kts 276°
2026-05-04 10:08 40.08931 -0.84531 32989 ft 384 kts 276°
2026-05-04 10:08 40.10109 -0.91331 32991 ft 384 kts 276°
2026-05-04 10:09 40.11286 -0.98138 33004 ft 384 kts 276°
2026-05-04 10:09 40.12463 -1.04950 32994 ft 384 kts 276°
2026-05-04 10:10 40.13639 -1.11772 33004 ft 385 kts 276°
2026-05-04 10:10 40.14811 -1.18593 33011 ft 385 kts 276°
2026-05-04 10:11 40.15984 -1.25413 33009 ft 385 kts 276°
2026-05-04 10:11 40.17143 -1.32237 33011 ft 384 kts 276°
2026-05-04 10:12 40.18300 -1.39063 33014 ft 385 kts 276°
2026-05-04 10:12 40.19451 -1.45843 33009 ft 384 kts 276°
2026-05-04 10:13 40.20596 -1.52668 33004 ft 384 kts 276°
2026-05-04 10:13 40.21735 -1.59494 32999 ft 384 kts 276°
2026-05-04 10:14 40.22876 -1.66314 33006 ft 384 kts 276°
2026-05-04 10:16 40.27384 -1.93548 33008 ft 382 kts 276°
2026-05-04 10:16 40.28501 -2.00347 33008 ft 381 kts 275°
2026-05-04 10:17 40.29606 -2.07139 33009 ft 381 kts 275°
2026-05-04 10:19 40.33985 -2.34269 33006 ft 380 kts 275°
2026-05-04 10:19 40.35071 -2.41051 33003 ft 380 kts 275°
2026-05-04 10:20 40.36149 -2.47839 32998 ft 380 kts 275°
2026-05-04 10:20 40.36776 -2.54627 32989 ft 370 kts 262°
2026-05-04 10:21 40.35749 -2.61141 32991 ft 364 kts 251°
2026-05-04 10:21 40.34360 -2.67522 32983 ft 364 kts 251°
2026-05-04 10:22 40.32294 -2.77108 32987 ft 364 kts 251°
2026-05-04 10:23 40.30909 -2.83490 32984 ft 364 kts 251°
2026-05-04 10:25 40.25303 -3.09020 32995 ft 365 kts 251°
2026-05-04 10:25 40.23879 -3.15395 32994 ft 365 kts 251°
2026-05-04 10:26 40.22456 -3.21772 32991 ft 365 kts 251°
2026-05-04 10:26 40.21049 -3.28112 32996 ft 365 kts 251°
2026-05-04 10:27 40.19630 -3.34492 32997 ft 365 kts 251°
2026-05-04 10:27 40.18370 -3.40144 33001 ft 365 kts 251°
2026-05-04 10:28 40.16941 -3.46518 32994 ft 366 kts 251°
2026-05-04 10:28 40.15506 -3.52896 32996 ft 366 kts 251°
2026-05-04 10:29 40.14070 -3.59271 32993 ft 366 kts 251°
2026-05-04 10:29 40.12631 -3.65650 33000 ft 366 kts 251°
2026-05-04 10:30 40.11183 -3.72020 32996 ft 366 kts 251°
2026-05-04 10:30 40.09730 -3.78386 32993 ft 366 kts 251°
2026-05-04 10:31 40.08276 -3.84750 32993 ft 366 kts 251°
2026-05-04 10:32 40.03143 -4.07082 32986 ft 368 kts 251°
2026-05-04 10:33 40.01668 -4.13469 32990 ft 368 kts 251°
2026-05-04 10:33 40.00187 -4.19853 32981 ft 368 kts 251°
2026-05-04 10:34 39.98700 -4.26235 32988 ft 368 kts 251°
2026-05-04 10:34 39.97204 -4.32621 32981 ft 368 kts 251°
2026-05-04 10:35 39.95799 -4.39051 32989 ft 369 kts 253°
2026-05-04 10:35 39.94524 -4.45539 32982 ft 370 kts 253°
2026-05-04 10:36 39.93237 -4.52028 32986 ft 370 kts 253°
2026-05-04 10:36 39.91927 -4.58467 32976 ft 370 kts 252°
2026-05-04 10:37 39.90597 -4.64950 32988 ft 371 kts 253°
2026-05-04 10:37 39.89263 -4.71446 32991 ft 371 kts 253°
2026-05-04 10:39 39.84567 -4.94180 32993 ft 372 kts 253°
2026-05-04 10:40 39.83211 -5.00679 32998 ft 372 kts 253°
2026-05-04 10:40 39.81855 -5.07180 33001 ft 373 kts 253°
2026-05-04 10:41 39.80492 -5.13690 32999 ft 373 kts 253°
2026-05-04 10:41 39.79130 -5.20198 33008 ft 373 kts 253°
2026-05-04 10:42 39.77762 -5.26708 33004 ft 373 kts 253°
2026-05-04 10:42 39.76385 -5.33199 33007 ft 372 kts 253°
2026-05-04 10:43 39.75004 -5.39686 33004 ft 373 kts 253°
2026-05-04 10:45 39.69470 -5.65626 33018 ft 373 kts 253°
2026-05-04 10:45 39.68072 -5.72111 33025 ft 373 kts 253°
2026-05-04 10:46 39.66678 -5.78588 33025 ft 373 kts 253°
2026-05-04 10:46 39.65283 -5.85067 33026 ft 372 kts 253°
2026-05-04 10:47 39.63879 -5.91529 33022 ft 372 kts 253°
2026-05-04 10:47 39.62470 -5.97983 33026 ft 372 kts 253°
2026-05-04 10:49 39.56819 -6.23765 33030 ft 371 kts 253°
2026-05-04 10:50 39.55399 -6.30189 33030 ft 371 kts 252°
2026-05-04 10:52 39.48457 -6.53743 33035 ft 369 kts 243°
2026-05-04 10:52 39.46148 -6.59685 33040 ft 369 kts 243°
2026-05-04 10:54 39.36895 -6.83389 33045 ft 369 kts 243°
2026-05-04 10:56 39.28762 -7.04047 32805 ft 363 kts 243°
2026-05-04 10:56 39.27628 -7.06922 32543 ft 356 kts 243°
2026-05-04 10:56 39.26523 -7.09718 32276 ft 353 kts 243°
2026-05-04 10:57 39.25411 -7.12526 32004 ft 351 kts 243°
2026-05-04 10:57 39.24304 -7.15320 31777 ft 349 kts 243°
2026-05-04 10:57 39.23201 -7.18099 31518 ft 347 kts 243°
2026-05-04 10:57 39.22103 -7.20860 31252 ft 345 kts 243°
2026-05-04 10:58 39.21012 -7.23607 31025 ft 342 kts 243°
2026-05-04 10:58 39.19938 -7.26309 30693 ft 335 kts 243°
2026-05-04 10:58 39.18882 -7.28965 30313 ft 331 kts 243°
2026-05-04 10:58 39.17839 -7.31590 29889 ft 327 kts 243°
2026-05-04 10:59 39.16814 -7.34172 29527 ft 321 kts 243°
2026-05-04 10:59 39.15802 -7.36713 29172 ft 315 kts 243°
2026-05-04 10:59 39.14807 -7.39201 28827 ft 310 kts 243°
2026-05-04 10:59 39.13825 -7.41646 28491 ft 304 kts 242°
2026-05-04 11:00 39.12860 -7.44053 28161 ft 301 kts 242°
2026-05-04 11:01 39.06256 -7.60535 25808 ft 291 kts 242°
2026-05-04 11:02 39.05326 -7.62841 25455 ft 290 kts 242°
2026-05-04 11:02 39.04399 -7.65133 25108 ft 288 kts 242°
2026-05-04 11:05 38.91205 -7.99676 20907 ft 306 kts 244°
2026-05-04 11:06 38.90167 -8.02050 20611 ft 305 kts 235°
2026-05-04 11:06 38.88831 -8.04165 20322 ft 305 kts 232°
2026-05-04 11:06 38.87474 -8.06255 20034 ft 304 kts 232°
2026-05-04 11:06 38.86121 -8.08342 19733 ft 304 kts 232°
2026-05-04 11:08 38.76683 -8.22894 17647 ft 301 kts 232°
2026-05-04 11:10 38.68996 -8.38276 15830 ft 293 kts 240°
2026-05-04 11:12 38.61821 -8.53745 13974 ft 284 kts 240°
2026-05-04 11:12 38.60814 -8.55916 13611 ft 284 kts 240°
2026-05-04 11:12 38.59811 -8.58080 13261 ft 282 kts 240°
2026-05-04 11:12 38.58810 -8.60235 12922 ft 281 kts 240°
2026-05-04 11:13 38.57814 -8.62377 12592 ft 280 kts 240°
2026-05-04 11:13 38.56823 -8.64508 12243 ft 279 kts 240°
2026-05-04 11:13 38.55833 -8.66633 11900 ft 278 kts 240°
2026-05-04 11:13 38.54847 -8.68747 11563 ft 277 kts 240°
2026-05-04 11:14 38.53863 -8.70860 11216 ft 276 kts 240°
2026-05-04 11:14 38.52883 -8.72964 10856 ft 276 kts 240°
2026-05-04 11:14 38.51900 -8.75067 10508 ft 275 kts 240°
2026-05-04 11:16 38.47465 -8.89655 8734 ft 248 kts 292°
2026-05-04 11:16 38.48168 -8.91675 8672 ft 249 kts 292°
2026-05-04 11:16 38.48869 -8.93692 8621 ft 249 kts 292°
2026-05-04 11:17 38.49574 -8.95724 8491 ft 257 kts 292°
2026-05-04 11:17 38.50315 -8.97868 8366 ft 268 kts 292°
2026-05-04 11:19 38.55580 -9.13062 6559 ft 262 kts 293°
2026-05-04 11:19 38.56314 -9.15186 5915 ft 260 kts 294°
2026-05-04 11:19 38.57039 -9.17287 5264 ft 257 kts 294°
2026-05-04 11:19 38.58006 -9.19182 4620 ft 255 kts 312°
2026-05-04 11:20 38.59385 -9.20600 3964 ft 255 kts 330°
2026-05-04 11:20 38.61037 -9.21374 3632 ft 257 kts 347°
2026-05-04 11:20 38.62812 -9.21465 3326 ft 257 kts
2026-05-04 11:20 38.64537 -9.20855 3002 ft 259 kts 20°
2026-05-04 11:22 38.73751 -9.15932 1003 ft 144 kts 19°
2026-05-04 11:22 38.74670 -9.15443 795 ft 140 kts 19°
2026-05-04 11:23 38.75567 -9.14965 631 ft 141 kts 18°
2026-05-04 11:23 38.76460 -9.14488 422 ft 138 kts 20°
2026-05-04 11:24 38.78182 -9.13566 351 ft 25 kts 26°
2026-05-04 11:25 38.78313 -9.13437 355 ft 21 kts 46°
2026-05-04 11:25 38.78337 -9.13405 352 ft 8 kts 47°
2026-05-04 11:25 38.78356 -9.13377 353 ft 1 kts 50°
2026-05-04 11:26 38.78376 -9.13327 352 ft 0 kts 82°
2026-05-04 11:27 38.78162 -9.13343 354 ft 13 kts 202°
2026-05-04 11:28 38.78087 -9.13378 353 ft 12 kts 198°
2026-05-04 11:28 38.78008 -9.13402 347 ft 12 kts 186°
2026-05-04 11:28 38.77920 -9.13386 351 ft 13 kts 167°
2026-05-04 11:28 38.77908 -9.13383 347 ft 2 kts 168°
2026-05-04 11:29 38.77880 -9.13376 347 ft 7 kts 169°
2026-05-04 11:29 38.77819 -9.13362 347 ft 11 kts 169°
2026-05-04 11:29 38.77730 -9.13339 347 ft 15 kts 168°
2026-05-04 11:29 38.77612 -9.13321 347 ft 19 kts 175°